Regional Weather Roundup
Issued by NWS Nashville, TN

Home | Current Version | Previous Version | Text Only | Print | Product List | Glossary On
Versions: 1 2 3 4 5 6 7 8 9 10 11 12 13 14 15 16 17 18 19 20 21 22 23 24 25 26 27 28 29 30 31 32 33 34 35 36 37 38 39 40 41 42 43 44 45 46 47 48 49
000
ASUS44 KOHX 252210
RWROHX
MIDDLE TENNESSEE HOURLY WEATHER ROUNDUP
NATIONAL WEATHER SERVICE NASHVILLE TN
500 PM CDT TUE APR 25 2017

NOTE: "FAIR" INDICATES FEW OR NO CLOUDS BELOW 12,000 FEET WITH
NO SIGNIFICANT WEATHER AND/OR OBSTRUCTIONS TO VISIBILITY.

* THESE REPORTS ARE NOT UNDER NWS QUALITY CONTROL AND MAY NOT
  REPORT WEATHER SUCH AS PRECIPITATION AND FOG.


TNZ005>011-023>034-057-059-062>066-078-080-252300
...NORTHERN MIDDLE TENNESSEE...

CITY           SKY/WX    TMP DP  RH WIND       PRES   REMARKS
CLARKSVILLE    SUNNY     77  54  44 S9        29.68F
CROSSVILLE     SUNNY     71  53  52 W5        29.76F
GALLATIN       SUNNY     75  57  53 VRB5      29.74F
DICKSON        SUNNY     77  56  48 SW9       29.69F
LEBANON        SUNNY     77  58  51 SE7       29.70F
LIVINGSTON     SUNNY     74  54  49 SW6       29.75
NASHVILLE      MOSUNNY   77  56  48 SW8       29.71F
PORTLAND       SUNNY     75  55  50 S8        29.70F
SMYRNA         SUNNY     76  58  53 S5        29.72F
SPARTA         MOSUNNY   72  55  56 S5        29.73
SPRINGFIELD    SUNNY     75  57  53 S8        29.69F
WEST NASHVILLE SUNNY     75  54  46 S7        29.69F
$$
TNZ056-058-060-061-075>077-079-093>097-252300
...SOUTHERN MIDDLE TENNESSEE...

CITY           SKY/WX    TMP DP  RH WIND       PRES   REMARKS
COLUMBIA       SUNNY     77  61  57 S8        29.70F
FAYETTEVILLE   SUNNY     75  55  50 S8        29.73F
MURFREESBORO   SUNNY     76  54  46 SW3       29.71F
SHELBYVILLE    SUNNY     77  57  50 SW7       29.73F
$$


...KEY TO REMARKS...
VSB - VISIBILITY IN MILES
WCI - WIND CHILL INDEX
HX  - HEAT INDEX




USA.gov is the U.S. government's official web portal to all federal, state and local government web resources and services.